BREEZE-M DEB, 41548

Orbit data source: Space-Track

BREEZE-M DEB, 41548 is space debris in GEO originally from a launch on Sun, 13 Dec 2015 UTC launched from the Tyuratam Missile And Space Complex (TTMTR). Debris objects in space refer to the collection of defunct objects orbiting the Earth. Examples of debris include non-operational satellites, rocket bodies, and fragments generated from explosions, collisions, or faulty payload assembly.

Loading next visibility...
Identifier
41548, 2015-075J
Orbit
GEO
Country
Flag of CISCIS
Related business
Manufacturer
Khrunichev
Mission
Spacecraft
Bus & Motor
Unknown
Mass
Unknown
Launch date (UTC)
2015-12-13 (11 years ago)
Launch vehicle
Unknown
Launch site
Tyuratam Missile And Space Complex (TTMTR)
Object type
Payload
Rocket body
Debris
Shape & HBR
Unknown shape, 1.1 m
Radar Cross Section
Medium (>0.1 m² and <1 m²)

Expand to show TLE details & history
Last TLE update: 3 days ago

TLE from 3 days ago
0 BREEZE-M DEB
1 41548U 15075J   26170.60860517 -.00000289  00000-0  00000-0 0  9999
2 41548   8.6955  55.8324 0371637 136.1303 226.7882  1.02194159 39298
Epoch: 2026-06-19T14:36Z
TLE epoch observation values (Epoch: 2026-06-19T14:36:23.486Z)
Latitude
-0°
Longitude
-71.16001°
Altitude
36,340.882 km
Speed
3.015 km/s
True Right ascension
03h 43m 05s
True Declination
0° 00' 00"
Sunlit
Object was in daylight at epoch
Visualization orbit readout
Latitude
Unknown
Longitude
Unknown
Altitude
Unknown
Speed
Unknown
Apparent Right ascension
Unknown
Apparent Declination
Unknown
Sunlit
N/A
Visualization observer readout
Local Sidereal Time
21:24:28
Azimuth
Unknown
Elevation
Unknown
Doppler factor
Unknown
Orbital elements
Apogee altitude
36,804.522 km
Perigee altitude
33,709.875 km
Semi-major axis
41,635.336 km
Eccentricity
0.03716
Inclination
8.6955°
RAAN
55.8324°
Arg. of periapsis
136.1303°
True anomaly
223.78155°
Mean anomaly
226.7882°
Eccentric anomaly
225.27532°
Mean motion
0.25548 °/min
Orbital period
1,409.13 mins
BSTAR
0
Loading maneuver chart data...
Computing Atmospheric mass density...
Loading historical data...
Loading historical data...
Loading historical data...
Loading historical data...
Loading historical data...
Loading historical data...
Loading historical data...

Documentation

Showing up to 5 results
|